Location: Bemmer
(51.5498°N, 5.6249°E)
Time: 13:56:28
(UTC+00:00)

Ariane Rocket - Pass Details

Date: 03 March 2021
Orbit: 759 x 771 km, 98.7° (Epoch: 11 April)

Event Time Altitude Azimuth Distance (km) Brightness Sun altitude
Exits shadow 18:42:04 13° 130° (SE) 2,089 4.8 -13.3°
Maximum altitude 18:46:12 41° 65° (ENE) 1,119 3.5 -13.9°
Drops below altitude 10° 18:50:57 10° 356° (N) 2,324 5.6 -14.7°
Sets 18:53:22 0° 350° (N) 3,254 6.5 -15.0°
